www.pogodaiklimat.ru

Погода и климат >> Архив погоды >> Украина >> Могилев-Подольский


ПОГОДА в Могилев-Подольском

  • Прогноз погоды в Могилев-Подольском
  • Монитор погоды в Могилев-Подольском
  • Климат города

АРХИВ ПОГОДЫ в Могилев-Подольском

Время (UTC), дата Ветер
(напр.,м/с)
 
Видим.   Явления Облачность Т
(С)
Тd
(С)
f
(%)
Тe
(С)
Тes
(С)
Комфортность P
(гПа)
Po
(гПа)
Тmin
(С)
Tmax
(С)
R
(мм)
R24
(мм)
S
(см)
00 17.06 СВ 2 2000 м слабый ливневой дождь 9/9 660 м
[Cb cap]
+18.9 +18.1 95 +21 +21 комфорт 1012.7 1003.6
03 17.06 С 1 4000 м слабый ливневой дождь 10/10 720 м
[Cb cap]
+18.0 +17.2 95 +19 +19 1011.7 1002.6
06 17.06 З 1 20 км в посл. час ливневой дождь 10/9 660 м
[Cb cap Ac und]
+18.0 +16.9 93 +19 +19 1011.5 1002.4 +17.5 3
09 17.06 СЗ 1 20 км 10/5 600 м
[Cb cap Ac und]
+21.8 +18.8 83 +27 +30 душно 1011.7 1002.7
12 17.06 В 2 20 км 8/4 600 м
[Cb calv Ac trans Ci fib]
+27.4 +19.2 61 +33 +39 очень
душно
1010.7 1001.9
15 17.06 С 2 20 км 8/5 600 м
[Cb calv Ac trans Ci fib]
+23.6 +16.6 65 +27 +29 жарко 1011.0 1002.0
18 17.06 штиль 0 10 км в посл. час гроза {ливн. осадки} 8/5 600 м
[Cb calv Ac trans]
+17.8 +16.6 93 +18 +18 1012.7 1003.5 +28.1 18
21 17.06 штиль 0 10 км 6/0
[Ac trans]
+18.0 +17.0 94 +18 +18 1012.5 1003.3
00 18.06 штиль 0 2000 м дымка 4/0
[Ac trans]
+16.8 +16.1 96 +17 +17 1012.7 1003.5
03 18.06 штиль 0 500 м туман ?/? +16.0 +15.7 98 +16 +16 1012.7 1003.5
06 18.06 штиль 0 10 км {туман} 8/3 600 м
[Cb calv Ac trans Ci fib]
+18.0 +16.9 93 +18 +23 1013.2 1004.0 +15.4
09 18.06 штиль 0 20 км {ливн. осадки} 6/0
[Ac trans Ci fib]
+23.7 +18.3 72 +28 +46 душно 1013.7 1004.7
12 18.06 С 1 20 км {ливн. осадки} 5/3 600 м
[Cu med, cong Ci fib]
+28.0 +18.1 55 +33 +45 очень
душно
1013.1 1004.3
15 18.06 В 1 20 км 4/3 600 м
[Cu med, cong Ci fib]
+29.0 +15.1 43 +32 +36 душно 1012.8 1004.0
18 18.06 СВ 1 20 км 5/0
[Ac trans Ci fib]
+24.6 +19.0 71 +30 +30 очень
душно
1013.3 1004.4 +29.2 0.7
21 18.06 штиль 0 10 км ясно +20.4 +17.8 85 +24 +24 комфорт 1015.3 1006.2
00 19.06 штиль 0 10 км ясно +17.0 +16.0 94 +17 +17 1015.9 1006.7
03 19.06 штиль 0 4000 м дымка ясно +15.8 +15.1 96 +16 +16 1017.0 1007.7
06 19.06 штиль 0 20 км {туман} ясно +20.0 +17.0 83 +23 +33 комфорт 1017.1 1008.0 +15.4
09 19.06 штиль 0 20 км 1/0
[Ac trans]
+27.9 +16.7 51 +32 +53 опасность
солнечного
удара
1016.4 1007.5
12 19.06 З 1 20 км 5/5 600 м
[Cu med, cong]
+30.1 +17.4 47 +34 +43 очень
душно
1016.3 1007.5
15 19.06 С 1 20 км 5/5 600 м
[Cu med, cong]
+29.0 +18.1 52 +34 +37 очень
душно
1015.9 1007.1
18 19.06 штиль 0 20 км 3/0
[Ci fib]
+25.9 +19.6 68 +31 +31 очень
душно
1016.0 1007.1 +30.3
21 19.06 штиль 0 10 км ясно +20.8 +19.4 92 +25 +25 комфорт 1017.2 1008.1
00 20.06 штиль 0 10 км ясно +18.9 +17.6 92 +20 +20 1018.1 1008.9
03 20.06 штиль 0 500 м туман ?/? +18.0 +17.7 98 +18 +18 1018.4 1009.2
06 20.06 штиль 0 20 км {туман} 6/0
[Ci fib]
+22.9 +19.0 79 +29 +38 очень
душно
1019.2 1010.1 +17.8
09 20.06 ЮЗ 1 20 км 8/0
[Ac trans Ci fib]
+27.9 +15.5 47 +31 +43 душно 1019.9 1011.0
12 20.06 С 2 20 км 5/3 1000 м
[Cu hum Ci fib]
+29.5 +14.3 39 +31 +42 жарко 1019.6 1010.7
15 20.06 С 2 20 км 3/1 1000 м
[Cu hum Ci fib]
+29.4 +13.5 38 +31 +35 жарко 1018.9 1010.0
18 20.06 штиль 0 20 км 3/0
[Ci sp]
+26.2 +16.5 55 +30 +30 душно 1018.8 1009.8 +30.5
21 20.06 штиль 0 10 км ясно +19.5 +17.2 87 +22 +22 комфорт 1020.0 1010.8
00 21.06 штиль 0 2000 м дымка ясно +17.4 +15.7 90 +17 +17 1018.7 1009.5
03 21.06 штиль 0 4000 м дымка 8/8 960 м
[Sc]
+17.2 +16.0 93 +17 +17 1018.8 1009.6
06 21.06 штиль 0 20 км 9/9 1080 м
[Sc]
+22.5 +17.3 72 +27 +28 душно 1018.7 1009.6 +16.8
09 21.06 штиль 0 20 км 4/1 1000 м
[Cu hum Ci fib]
+27.3 +16.5 52 +31 +50 душно 1017.2 1008.3
12 21.06 штиль 0 20 км 4/3 1000 м
[Cu hum Ci fib]
+28.5 +17.8 52 +33 +47 очень
душно
1015.0 1006.1
15 21.06 штиль 0 20 км 4/3 1000 м
[Cu hum Ci fib]
+29.2 +17.4 49 +33 +38 очень
душно
1012.7 1003.9
18 21.06 штиль 0 20 км 5/0
[Ci fib]
+27.5 +19.9 63 +33 +33 очень
душно
1012.4 1003.5 +30.0
21 21.06 штиль 0 10 км 3/0
[Ci fib]
+22.0 +18.7 82 +27 +27 душно 1011.3 1002.3
00 22.06 штиль 0 10 км ясно +19.4 +17.4 88 +21 +21 комфорт 1010.3 1001.2
03 22.06 штиль 0 20 км 5/0
[Ac trans Ci fib]
+18.1 +16.8 92 +18 +19 1009.9 1000.8
06 22.06 штиль 0 20 км 5/0
[Ac trans Ci fib]
+23.5 +18.3 73 +28 +36 душно 1009.4 1000.5 +17.9
09 22.06 С 1 20 км 8/3 600 м
[Cu med, cong Ac trans Ci fib]
+25.2 +19.1 69 +30 +39 душно 1009.8 1000.9
12 22.06 С 3 20 км 8/4 600 м
[Cu Sc Ac trans Ci fib]
+23.6 +16.2 63 +27 +32 жарко 1010.1 1001.1
15 22.06 С 4 20 км 10/5 600 м
[Cb calv Ac trans]
+13.5 +13 +13 1011.3 1002.2
18 22.06 СЗ 2 20 км 6/4 600 м
[Cb calv Ac trans Ci fib]
+17.8 +12.2 70 +18 +18 1011.9 1002.7 +26.9
21 22.06 СЗ 1 10 км гроза без осадков 10/5 600 м
[Cb calv Ac und]
+16.6 +11.9 74 +17 +17 1012.3 1003.1
00 23.06 СЗ 1 10 км {гроза, ливн. осадки} 8/4 600 м
[Cb calv Ac trans]
+14.7 +12.9 89 +15 +15 1011.4 1002.1
03 23.06 С 2 10 км слабый ливневой дождь 10/8 800 м
[Cb calv Ac und]
+14.5 +12.7 89 +14 +14 1011.4 1002.1
06 23.06 З 2 10 км в посл. час ливневой дождь 10/8 750 м
[Cb calv Ac und]
+13.2 +11.5 89 +12 +13 1011.7 1002.4 +12.8 5
09 23.06 З 2 10 км слабый ливневой дождь 10/9 720 м
[Cb calv Ac und]
+13.0 +11.5 91 +12 +13 1011.8 1002.5
12 23.06 СЗ 2 20 км в посл. час ливневой дождь 10/9 750 м
[Cb calv Ac und]
+13.0 +11.3 89 +12 +13 1012.8 1003.5
15 23.06 З 2 20 км {ливн. осадки} 10/8 840 м
[Cb calv Ac und]
+14.1 +10.6 79 +14 +14 1013.4 1004.1
18 23.06 С 1 20 км {ливн. осадки} 3/3 600 м
[Cb calv]
+13.5 +9.2 75 +14 +14 1013.5 1004.2 +14.1 5
21 23.06 штиль 0 10 км ясно +9.8 +8.4 91 +9 +9 1014.6 1005.1

 

Местоположение метеостанции Могилев-Подольский (Винницкая область, Украина): широта 48.45 долгота 27.78 высота над уровнем моря 78 м.

В архиве по умолчанию представлена погода в Могилев-Подольском за последнюю неделю. Архивные данные за месяц целиком и за предыдущие месяцы, начиная с января 2011 года, Вы можете получить, выбрав интересующий диапазон дат из раскрывающегося списка и нажав кнопку "Ввод!".


*Определитесь, кто Вы:
робот инопланетянин человек

Внимание! Время в таблицах - всемирное. Для получения местного времени необходимо прибавить поправку, которая в Могилев-Подольском равна 2 ч.

Смотрите также архив погоды в соседних городах и на ближайших метеорологических станциях:

Погода в Новоднестровске (Черновицкая область, Украина) (28 км)
Погода в Сороках (Молдова) (47 км)
Погода в Бричанах (Молдова) (53 км)
Погода в Новой Ушице (Хмельницкая область, Украина) (58 км)
Погода в Жмеринке (Винницкая область, Украина) (71 км)
Погода в Бельцах (Молдова) (76 км)
Погода в Stanca Stefanesti (Румыния) (81 км)
Погода в Каменке (Молдова) (83 км)
Погода в Каменец-Подольском (Хмельницкая область, Украина) (85 км)
Погода в Darabani (Румыния) (93 км)

Пояснения к столбцам:

Ветер - указаны скорость ветра в м/с - средняя за 10 мин, порывы в срок и между сроками (в фигурных скобках) и направление, откуда дует ветер: С - северный, СВ - северо-восточный, В - восточный, ЮВ - юго-восточный, Ю - южный, ЮЗ - юго-западный, З - западный, СЗ - северо-западный.
Видимость - горизонтальная дальность видимости в метрах или километрах. При видимости от 1 до 10 км при отсутствии осадков обычно наблюдается дымка, при ухудшении видимости до 1 км и менее - туман. В сухую погоду видимость может ухудшаться дымом, пылью или мглою.
Явления - указаны атмосферные явления, наблюдавшиеся в срок или в последний час перед сроком; фигурными скобками обозначены явления, наблюдавшиеся между сроками (за 1-3 часа до срока); квадратными скобками обозначены град или гололедные отложения с указанием их диаметра в мм.
Облачность - указаны через наклонную черту общая и нижняя облачность в баллах и высота нижней границы облаков в метрах; квадратными скобками обозначены формы облаков: Ci - перистые, Cs - перисто-слоистые, Cc - перисто-кучевые, Ac - высококучевые, As - высокослоистые, Sc - слоисто-кучевые, Ns - слоисто-дождевые, Cu - кучевые, Cb - кучево-дождевые. Подробнее классификацию облаков см. в Атласе облаков (PDF).
T - Температура воздуха - температура, измеренная на высоте 2 м над землей.
Td - Температура точки росы - температура, при понижении до которой содержащийся в воздухе водяной пар достигнет насыщения.
f - Относительная влажность воздуха - влажноcть воздуха, измеренная на высоте 2 м над землей.
Te - Эффективная температура - температура, которую ощущает одетый по сезону человек в тени. Характеристика душности погоды. При расчете учитывается влияние влажности воздуха и скорости ветра на теплоощущения человека.
Tes - Эффективная температура на солнце - температура, которую ощущает человек, с поправкой на солнечный нагрев. Характеристика знойности погоды. Зависит от высоты солнца над горизонтом, облачности и скорости ветра. Ночью, в пасмурную погоду, а также при ветре 12 м/с и более поправка равна нулю.
P - Атмосферное давление - приведенное к уровню моря атмосферное давление.
Po - Атмосферное давление - измеренное на уровне метеостанции атмосферное давление.
Tmin - Минимальная температура - минимум температуры воздуха на высоте 2 м над землей.
Tmax - Максимальная температура - максимум температуры воздуха на высоте 2 м над землей.
R - Количество осадков - Количество выпавших осадков за период времени, мм. При наведении курсора мыши на число - период времени, за который выпало указанное количество осадков.
R24 - Количество осадков - Количество выпавших осадков за 24 часа, мм.
S - Снежный покров - Высота снежного покрова, см. При наведении курсора мыши на число - состояние снежного покрова и степень покрытия местности в баллах.